Joe Foss Field Airport
KFSD : now visible

Airfield :











YOU CAN JOIN US ON...

 
LOGIN :

Register | Disclaimer

   EN    FR    IT 

 









Legend :    VFR   Marginal VFR   IFR   Intensive IFR   Very Intensive IFR
Visi :
Ceiling :
>= 8 km
>= 3000ft
5 to 8 km
1000 to 3000 ft
1500m to 5 km
500 to 1000 ft
800 to 1500m
200 to 500 ft
< 800m
< 200 ft
Symbols :   Thunderstorms  Fog  Heavy snow  Heavy precipitations  Wind > 20 kt







- Airport Elevation : 1429 ft
- IATA code : FSD


KFSD - Joe Foss Field

CURRENT METAR :
  • 190556Z AUTO 00000KT 10SM CLR 17/15 A2997 RMK AO2 SLP141 T01670150 10244 20161 402610161 50001

EXPIRED METARs :
  • 190456Z 00000KT 10SM CLR 17/15 A2999 RMK AO2 SLP149 LAST T01720150
  • 190356Z 00000KT 10SM CLR 18/14 A2997 RMK AO2 SLP145 T01780144

TAF KFSD
Valid from the 19 at 06:00 until the 20 at 06:00 UTC


190520Z 1906/2006 VRB05KT P6SM SCT150
FM191400 12010KT P6SM SKC
No reported NOTAMs for that airfield.



MET'MAP, your aeronautical weather chart ! - Copyright ORBIFLY December 2007 - Disclaimer

ORBIFLY MET'MAP TEAM :

Programming & Development : Alexandra Zaïnal
Concept & Development : Baudouin d'Aumeries
Co-Development & Prog : Marc-Olivier Méhu
Technical & hardware support : Manuel Goepfert

Contact : metmap@orbifly.com




SOURCES & CREDITS :

   NOAA       Earth
Advisory